Location: Seattle
(47.6064°N, 122.3308°W)
Time: 03:16:06
(UTC-07:00)

ITUPSAT 1 - Pass Details

Date: 06 April 2023
Orbit: 697 x 710 km, 98.5° (Epoch: 29 May)

Event Time Altitude Azimuth Distance (km) Brightness Sun altitude
Rises 21:28:09 0° 24° (NNE) 3,118 ? -16.8°
Reaches altitude 10° 21:30:47 10° 37° (NE) 2,191 ? -17.2°
Enters shadow 21:34:18 25° 84° (E) 1,397 ? -17.7°
